Tracking 35334 objects as of 13-Sep-2026
HD Live streaming from Space Station
objects crossing your sky now

IRIDIUM 33 DEB


IRIDIUM 33 DEB is no longer on orbit


NORAD ID: 38019
Int'l Code: 1997-051YF
Launch date: September 14, 1997
Source: United States (US)
Launch site: TYURATAM MISSILE AND SPACE COMPLEX (TTMTR)
Decay date: 2023-08-03

Note: This is SATELLITE DEBRIS
Your satellite tracking list
Your tracking list is empty




NASA's NSSDC Master Catalog

Two Line Element Set (TLE):
1 38019U 97051YF  23038.03960068  .00104163  00000-0  12900-1 0  9999
2 38019  86.3880 151.8857 0051160 349.2987  10.7141 14.81240488511287
Source of the keplerian elements: AFSPC